カタログに戻る

COSMOS 2251 DEB

運用中LEO
NORAD 34343·DEBRIS·🇷🇺 Russia

打ち上げ Jun 16, 1993 から Plesetsk Cosmodrome

Loading…

次のパス (今後24時間)

TLE

最新Source: Space-Track

元期: Sep 14, 2026, 01:56 UTC

1 34343U 93036PR  26257.08087696  .00004300  00000-0  66522-3 0  9995
2 34343  74.0159 273.6256 0016492 123.5147 300.1069 14.73481234927814

AllMySatでCOSMOS 2251 DEBをリアルタイム追跡

Download on the App Store